NOAA 16 DEB, 41079

Orbit data source: Space-Track

NOAA 16 DEB, 41079 is space debris in SSO originally from a launch on Thu, 21 Sep 2000 UTC launched from the Air Force Western Test Range (AFWTR). Debris objects in space refer to the collection of defunct objects orbiting the Earth. Examples of debris include non-operational satellites, rocket bodies, and fragments generated from explosions, collisions, or faulty payload assembly.

Loading next visibility...
Identifier
41079, 2000-055AN
Orbit
SSO
Country
Flag of USUS
Related business
Manufacturer
Unknown
Mission
Spacecraft
Bus & Motor
Unknown
Mass
Unknown
Launch date (UTC)
2000-09-21 (25 years ago)
Launch vehicle
Unknown
Launch site
Air Force Western Test Range (AFWTR)
Object type
Payload
Rocket body
Debris
Shape & HBR
Unknown shape, 0.1 m
Radar Cross Section
Small (<0.1 m²)

Expand to show TLE details & history
Last TLE update: 14 hours ago

TLE from 14 hours ago
0 NOAA 16 DEB
1 41079U 00055AN  25309.11283770  .00000571  00000-0  51190-3 0  9991
2 41079  99.0906 253.2794 0142558 269.1751  89.3068 13.83931098501469
Epoch: 2025-11-05T02:42Z
TLE epoch observation values (Epoch: 2025-11-05T02:42:29.177Z)
Latitude
-0.00006°
Longitude
168.06766°
Altitude
953.055 km
Speed
7.375 km/s
True Right ascension
16h 53m 07s
True Declination
0° 00' 00"
Sunlit
Object was in daylight at epoch
Visualization orbit readout
Latitude
Unknown
Longitude
Unknown
Altitude
Unknown
Speed
Unknown
Apparent Right ascension
Unknown
Apparent Declination
Unknown
Sunlit
N/A
Visualization observer readout
Local Sidereal Time
12:25:21
Azimuth
Unknown
Elevation
Unknown
Doppler factor
Unknown
Orbital elements
Apogee altitude
1,051.63 km
Perigee altitude
842.773 km
Semi-major axis
7,325.338 km
Eccentricity
0.01426
Inclination
99.0906°
RAAN
253.2794°
Arg. of periapsis
269.1751°
True anomaly
90.94041°
Mean anomaly
89.3068°
Eccentric anomaly
90.1236°
Mean motion
3.4618 °/min
Orbital period
103.99 mins
BSTAR
0.0005119
Loading maneuver chart data...
Computing Atmospheric mass density...
Loading historical data...
Loading historical data...
Loading historical data...
Loading historical data...
Loading historical data...
Loading historical data...
Loading historical data...

Documentation

Showing up to 5 results
|